TimeCST,TemperatureF,Dew PointF,Humidity,Sea Level PressureIn,VisibilityMPH,Wind Direction,Wind SpeedMPH,Gust SpeedMPH,PrecipitationIn,Events,Conditions,WindDirDegrees,DateUTC
12:53 AM,21.9,18.0,85,30.27,9.0,Calm,Calm,-,N/A,,Clear,0,2013-01-03 06:53:00
1:53 AM,21.9,17.1,82,30.27,9.0,Calm,Calm,-,N/A,,Clear,0,2013-01-03 07:53:00
2:53 AM,19.9,17.1,89,30.28,9.0,Calm,Calm,-,N/A,,Clear,0,2013-01-03 08:53:00
3:53 AM,21.0,16.0,81,30.30,9.0,WSW,5.8,-,N/A,,Clear,250,2013-01-03 09:53:00
4:53 AM,19.9,17.1,89,30.32,9.0,West,4.6,-,N/A,,Clear,270,2013-01-03 10:53:00
5:53 AM,21.0,17.1,85,30.34,7.0,WNW,3.5,-,N/A,,Clear,290,2013-01-03 11:53:00
6:53 AM,21.0,17.1,85,30.35,6.0,WNW,3.5,-,N/A,,Clear,290,2013-01-03 12:53:00
7:53 AM,21.0,18.0,88,30.37,4.0,West,4.6,-,N/A,,Clear,280,2013-01-03 13:53:00
8:53 AM,28.0,23.0,81,30.38,6.0,NW,4.6,-,N/A,,Haze,320,2013-01-03 14:53:00
9:53 AM,34.0,26.1,73,30.40,9.0,NNW,8.1,-,N/A,,Clear,340,2013-01-03 15:53:00
10:53 AM,37.0,25.0,62,30.42,10.0,NNW,8.1,-,N/A,,Clear,330,2013-01-03 16:53:00
11:53 AM,39.9,23.0,51,30.39,10.0,NNW,5.8,-,N/A,,Clear,330,2013-01-03 17:53:00
12:53 PM,39.0,21.9,50,30.38,10.0,Variable,5.8,-,N/A,,Clear,0,2013-01-03 18:53:00
1:53 PM,39.9,21.9,49,30.36,10.0,WNW,6.9,-,N/A,,Clear,300,2013-01-03 19:53:00
2:53 PM,42.1,21.0,43,30.36,10.0,Variable,5.8,-,N/A,,Clear,0,2013-01-03 20:53:00
3:53 PM,42.1,21.0,43,30.37,10.0,NW,5.8,-,N/A,,Clear,320,2013-01-03 21:53:00
4:53 PM,37.9,21.0,51,30.39,10.0,NW,3.5,-,N/A,,Clear,310,2013-01-03 22:53:00
5:53 PM,35.1,19.9,54,30.40,10.0,Calm,Calm,-,N/A,,Clear,0,2013-01-03 23:53:00
6:53 PM,33.1,19.9,59,30.42,10.0,NNW,3.5,-,N/A,,Clear,340,2013-01-04 00:53:00
7:53 PM,28.0,19.9,72,30.43,10.0,Calm,Calm,-,N/A,,Clear,0,2013-01-04 01:53:00
8:53 PM,28.0,19.9,72,30.44,10.0,North,-9999.0,-,N/A,,Clear,0,2013-01-04 02:53:00
9:53 PM,25.0,19.9,81,30.43,10.0,North,-9999.0,-,N/A,,Partly Cloudy,0,2013-01-04 03:53:00
10:53 PM,26.1,19.0,75,30.43,10.0,West,3.5,-,N/A,,Partly Cloudy,280,2013-01-04 04:53:00